Home   Weather   Majuro   Past weeks
Flag for Marshall Islands

Past Weather in Majuro, Marshall Islands — Yesterday and Last 2 Weeks

Now
84 °F

Cloudy.


Feels Like: 93 °F
Forecast: 87 / 79 °F
Wind: 9 mph from Southwest

Location: Majuro Atoll

Current Time: Oct 20, 2019 at 2:16:51 pm

Latest Report: Oct 20, 2019 at 12:52 pm


Visibility: 15 mi

Pressure: 29.82 "Hg

Humidity: 80%

Dew Point: 77 °F

Location of MajuroLocation

Past Weather in Majuro — Graph

°F

Majuro Temperature Yesterday

Maximum temperature yesterday: 89 °F (at 2:52 pm)
Minimum temperature yesterday: 82 °F (at 6:51 am)
Average temperature yesterday: 85 °F

High & Low Weather Summary for the Past Weeks

 TemperatureHumidityPressure
High90 °F (Oct 18, 1:53 pm)94% (Oct 20, 3:21 am)29.90 "Hg (Oct 20, 3:21 am)
Low76 °F (Oct 17, 5:52 am)63% (Oct 13, 11:58 am)29.70 "Hg (Oct 10, 3:51 pm)
Average84 °F76%29.81 "Hg
* Reported Oct 5 12:53 pm — Oct 20 12:52 pm, Majuro. Weather by CustomWeather, © 2019

Note: Actual official high and low records may vary slightly from our data, if they occured in-between our weather recording intervals... More about our weather records

Advertising

Majuro Weather History for the Previous 24 Hours

Scroll right to see more
 ConditionsComfort  
Time TempWeatherWind HumidityBarometerVisibility
12:52 pm
Sun, Oct 20
84 °FCloudy.9 mph80%29.82 "Hg15 mi
11:55 am84 °FCloudy.8 mph78%29.84 "Hg15 mi
10:52 am83 °FCloudy.7 mph80%29.89 "Hg15 mi
7:53 am78 °FSprinkles. Cloudy.7 mph92%29.90 "Hg10 mi
6:56 am77 °FSprinkles. Overcast.No wind92%29.88 "Hg10 mi
5:51 am78 °FSprinkles. Overcast.3 mph91%29.87 "Hg12 mi
4:54 am78 °FSprinkles. Overcast.2 mph91%29.84 "Hg10 mi
3:53 am77 °FSprinkles. Overcast.7 mph90%29.83 "Hg10 mi
3:21 am77 °FSprinkles. Overcast.5 mph94%29.84 "Hg8 mi
3:02 am77 °FThunderstorms. Overcast.6 mph89%29.84 "Hg7 mi
2:52 am77 °FLots of rain. Mostly cloudy.6 mph88%29.85 "Hg1 mi
2:35 am77 °FRain showers. Overcast.12 mph89%29.83 "Hg5 mi
1:52 am81 °FOvercast.8 mph83%29.83 "Hg15 mi
12:54 am83 °FOvercast.3 mph80%29.83 "Hg15 mi
11:52 pm
Sat, Oct 19
83 °FOvercast.3 mph70%29.86 "Hg15 mi
10:51 pm84 °FOvercast.3 mph80%29.88 "Hg15 mi
9:53 pm85 °FPartly cloudy.No wind74%29.87 "Hg15 mi
8:52 pm85 °FPartly cloudy.No wind75%29.85 "Hg15 mi
7:56 pm85 °FPartly cloudy.No wind74%29.83 "Hg15 mi
6:53 pm85 °FBroken clouds.5 mph73%29.82 "Hg15 mi
5:58 pm86 °FBroken clouds.No wind71%29.80 "Hg15 mi
4:56 pm87 °FScattered clouds.5 mph68%29.79 "Hg20 mi
3:53 pm88 °FScattered clouds.6 mph67%29.78 "Hg20 mi
2:52 pm89 °FScattered clouds.6 mph67%29.78 "Hg20 mi
Weather by CustomWeather, © 2019

See weather overview